TimeEST,TemperatureF,Dew PointF,Humidity,Sea Level PressureIn,VisibilityMPH,Wind Direction,Wind SpeedMPH,Gust SpeedMPH,PrecipitationIn,Events,Conditions,WindDirDegrees,DateUTC
12:53 AM,34.0,27.0,75,29.93,9.0,WNW,11.5,-,N/A,,Overcast,290,2013-01-01 05:53:00
1:53 AM,33.1,25.0,72,29.94,10.0,WNW,12.7,19.6,N/A,,Overcast,290,2013-01-01 06:53:00
2:33 AM,33.8,21.2,60,29.93,10.0,WNW,11.5,19.6,N/A,,Overcast,300,2013-01-01 07:33:00
2:53 AM,33.1,21.0,61,29.96,10.0,WNW,12.7,20.7,N/A,,Overcast,290,2013-01-01 07:53:00
3:53 AM,32.0,19.9,61,29.96,10.0,WNW,12.7,-,N/A,,Overcast,290,2013-01-01 08:53:00
4:53 AM,30.9,21.0,67,29.96,10.0,WNW,13.8,18.4,N/A,,Overcast,300,2013-01-01 09:53:00
5:04 AM,30.2,21.2,69,29.95,10.0,WNW,10.4,19.6,N/A,,Overcast,300,2013-01-01 10:04:00
5:16 AM,30.2,21.2,69,29.95,10.0,NW,11.5,-,N/A,,Overcast,320,2013-01-01 10:16:00
5:46 AM,30.2,21.2,69,29.96,10.0,WNW,9.2,-,N/A,,Overcast,300,2013-01-01 10:46:00
5:53 AM,30.0,21.0,69,29.99,10.0,NW,10.4,-,N/A,,Overcast,310,2013-01-01 10:53:00
6:02 AM,30.2,21.2,69,29.96,10.0,NW,11.5,-,N/A,,Overcast,310,2013-01-01 11:02:00
6:23 AM,28.4,21.2,74,29.97,10.0,NW,9.2,17.3,N/A,,Overcast,310,2013-01-01 11:23:00
7:39 AM,26.6,17.6,69,29.99,10.0,NW,10.4,-,N/A,,Overcast,310,2013-01-01 12:39:00
7:53 AM,27.0,17.1,66,30.02,10.0,NW,10.4,-,N/A,,Overcast,320,2013-01-01 12:53:00
8:09 AM,26.6,17.6,69,30.00,10.0,NW,8.1,-,N/A,,Overcast,320,2013-01-01 13:09:00
8:30 AM,26.6,15.8,64,30.01,10.0,NW,10.4,-,N/A,,Overcast,310,2013-01-01 13:30:00
8:53 AM,27.0,15.1,61,30.04,10.0,NW,12.7,19.6,N/A,,Overcast,310,2013-01-01 13:53:00
9:53 AM,27.0,15.1,61,30.05,10.0,NW,10.4,-,N/A,,Overcast,320,2013-01-01 14:53:00
10:53 AM,27.0,16.0,63,30.07,10.0,NW,11.5,-,N/A,,Overcast,320,2013-01-01 15:53:00
11:53 AM,26.1,15.1,63,30.05,10.0,NW,11.5,-,N/A,,Overcast,320,2013-01-01 16:53:00
1:53 PM,26.1,12.9,58,30.02,10.0,NW,9.2,-,N/A,,Overcast,320,2013-01-01 18:53:00
2:53 PM,26.1,14.0,60,30.03,10.0,WNW,6.9,-,N/A,,Overcast,300,2013-01-01 19:53:00
3:53 PM,25.0,14.0,63,30.03,10.0,NW,9.2,-,N/A,,Overcast,310,2013-01-01 20:53:00
4:53 PM,24.1,12.9,62,30.05,10.0,WNW,6.9,-,N/A,,Mostly Cloudy,300,2013-01-01 21:53:00
5:53 PM,25.0,12.0,58,30.06,10.0,WNW,10.4,-,N/A,,Overcast,300,2013-01-01 22:53:00
6:53 PM,24.1,12.9,62,30.07,10.0,NW,8.1,-,N/A,,Overcast,310,2013-01-01 23:53:00
7:53 PM,24.1,12.0,60,30.06,10.0,NW,9.2,-,N/A,,Overcast,310,2013-01-02 00:53:00
8:53 PM,24.1,10.9,57,30.06,10.0,WNW,10.4,-,N/A,,Overcast,300,2013-01-02 01:53:00
9:53 PM,24.1,12.9,62,30.06,10.0,NW,6.9,-,N/A,,Overcast,320,2013-01-02 02:53:00
10:53 PM,25.0,12.0,58,30.05,10.0,West,5.8,-,N/A,,Overcast,280,2013-01-02 03:53:00
11:53 PM,26.1,16.0,66,30.05,10.0,WNW,6.9,16.1,0.00,Snow,Light Snow,300,2013-01-02 04:53:00